Regional Weather Roundup
Issued by NWS

Current Version | Previous Version | Text Only | Print | Product List | Glossary On
Versions: 1 2 3 4 5 6 7 8 9 10 11 12 13 14 15 16 17 18 19 20 21 22 23 24 25 26 27 28 29 30 31 32 33 34 35 36 37 38 39 40 41 42 43 44 45 46 47 48 49 50
000
ASUS42 KFFC 290210
RWRGA
WEATHER ROUNDUP FOR GEORGIA
NATIONAL WEATHER SERVICE PEACHTREE CITY GA
1000 PM EDT THU MAY 28 2020

NOTE: "FAIR" INDICATES FEW OR NO CLOUDS BELOW 12,000 FEET WITH NO
SIGNIFICANT WEATHER AND/OR OBSTRUCTIONS TO VISIBILITY.

* = USE WITH CAUTION. THE STATIONS MARKED WITH AN ASTERISK MAY NOT
REPORT WEATHER SUCH AS PRECIPITATION, FOG, OR THUNDER AND ARE NOT
QUALITY CONTROLLED BY NWS.

THE REMARK "TC" DENOTES TEMPERATURE READING IN DEGREES CELSIUS.

GAZ001>058-290300-
NORTH GEORGIA

CITY           SKY/WX    TMP DP  RH WIND       PRES   REMARKS
ATLANTA        MOCLDY    76  66  71 CALM      30.04R
ATHENS         MOCLDY    74  69  85 CALM      30.03R
CHAMBLEE       PTCLDY    71  68  90 CALM      30.04R
PEACHTREE CITY PTCLDY    73  71  93 CALM      30.04R
ROME           PTCLDY    71  65  81 CALM      30.01R
WEST ATLANTA   MOCLDY    72  66  81 CALM      30.03R
GAINESVILLE    CLEAR     73  66  78 CALM      30.07R
CARTERSVILLE   PTCLDY    71  68  90 CALM      30.03R


CITY           SKY/WX    TMP DP  RH WIND       PRES   REMARKS
DALTON*        PTCLDY    72  64  78 CALM      30.04R
LAWRENCEVILLE* PTCLDY    72  72 100 CALM      30.05R
MARIETTA       PTCLDY    75  66  74 CALM      30.03R
KENNESAW*      PTCLDY    75  66  73 CALM      30.04R
CANTON*        PTCLDY    72  68  88 CALM      30.06R
BLAIRSVILLE*   PTCLDY    67  64  91 NE3       30.09R
$$

GAZ059>098-102>109-290300-
CENTRAL GEORGIA

CITY           SKY/WX    TMP DP  RH WIND       PRES   REMARKS
AUGUSTA-BUSH   MOCLDY    77  73  87 S3        30.01R
AUGUSTA-DANIEL MOCLDY    82  71  69 SE5       30.04R
COLUMBUS       PTCLDY    80  69  69 CALM      30.02R
MACON          MOCLDY    79  69  71 S3        30.02R
ROBINS AFB     PTCLDY    78  73  85 SE6       30.02R


CITY           SKY/WX    TMP DP  RH WIND       PRES   REMARKS
LAGRANGE*      MOCLDY    72  71  96 CALM      30.04R
SYLVANIA*      CLOUDY    81  75  83 S8        30.05R
MILLEDGEVILLE* MOCLDY    77  72  83 CALM      30.03R
$$

GAZ099>101-110>166-290300-
SOUTH GEORGIA

CITY           SKY/WX    TMP DP  RH WIND       PRES   REMARKS
SAVANNAH       CLOUDY    79  75  87 S8        30.06R
VALDOSTA       LGT RAIN  73  70  90 E5        30.08R
ALMA           CLOUDY    71  67  87 SE7       30.06R
ST SIMONS      CLOUDY    79  74  84 S6        30.06R
FT STEWART     MOCLDY    78  75  90 S5        30.04R
ALBANY         MOCLDY    77  71  82 CALM      30.06R
HUNTER AFB     CLOUDY    78  74  86 SE8       30.03R
MOODY AFB      MOCLDY    72  69  88 SE10      30.06F
BRUNSWICK      CLOUDY    78  75  90 S5        30.06S


CITY           SKY/WX    TMP DP  RH WIND       PRES   REMARKS
BAINBRIDGE*    CLOUDY    77  70  80 CALM      30.03R
MOULTRIE*      MOCLDY    79  73  83 CALM      30.06R
VIDALIA*       CLOUDY    81  72  74 S5        30.04S
WAYCROSS*      LGT RAIN  71  66  84 SW8       30.06S
DOUGLAS*       CLOUDY    72  68  89 CALM      30.07S
$$




USA.gov is the U.S. government's official web portal to all federal, state and local government web resources and services.